Weather Roundup
Issued by NWS

Home | Current Version | Previous Version | Graphics & Text | Print | Product List | Glossary Off
Versions: 1 2 3 4 5 6 7 8 9 10 11 12 13 14 15 16 17 18 19 20 21 22 23 24 25 26 27 28 29 30 31 32 33 34 35 36 37 38 39 40 41 42 43 44 45 46 47 48 49 50

399
NZUS93 KARX 280610
HRRWXR

CURRENT HOURLY OBSERVATIONS ACROSS
MUCH OF THE UPPER MISSISSIPPI VALLEY
NATIONAL WEATHER SERVICE LA CROSSE WI
100 AM CDT SAT MAY 28 2016


...SOUTHEAST MINNESOTA...


CITY           SKY/WX    TMP DP  RH WIND       PRES   REMARKS
ROCHESTER      CLOUDY    62  62 100 CALM      29.78R FOG
ROCHESTER/MAYO FAIR      62  63 100 CALM      29.77R
WINONA         CLOUDY    66  64  94 CALM      29.75S
AUSTIN         CLOUDY    61  59  94 CALM      29.76F FOG
ALBERT LEA     CLOUDY    63  63 100 CALM      29.76F
DODGE CENTER   CLOUDY    61  59  94 CALM      29.77F FOG
PRESTON        MOCLDY    62  60  94 S3        29.78R FOG
OWATONNA       CLOUDY    61  59  94 CALM      29.76F FOG
FARIBAULT      CLOUDY    61  61 100 CALM      29.76F
$$

...ELSEWHERE IN MINNESOTA...


CITY           SKY/WX    TMP DP  RH WIND       PRES   REMARKS
MINNEAPOLIS    CLOUDY    63  60  90 NW7       29.76F
INTNL FALLS    CLOUDY    61  54  77 NE3       29.85S
DULUTH         DRIZZLE   54  53  97 E13       29.79F FOG
RED WING       FOG       63  61  94 CALM      29.75S VSB 1/2
REDWOOD FALLS  CLOUDY    62  59  90 NE5       29.77S
MANKATO        CLOUDY    63  57  82 N6        29.76F
WORTHINGTON    PTCLDY    63  60  90 E9        29.75F
FAIRMONT       CLOUDY    64  61  88 CALM      29.75F
$$

...SOUTHWEST WISCONSIN...


CITY           SKY/WX    TMP DP  RH WIND       PRES   REMARKS
LA CROSSE      CLOUDY    67  66  97 E3        29.73F
PRAIRIE DU CHI CLOUDY    66  64  94 CALM      29.74S
BOSCOBEL       CLOUDY    66  65  96 NE3       29.74F
LONE ROCK      MOCLDY    70  66  87 E6        29.76F
PLATTEVILLE    CLOUDY    70  68  94 SE8       29.76F
FORT MC COY    CLOUDY    63  63 100 CALM      29.76F
CAMP DOUGLAS   PTCLDY    66 N/A N/A SE6       29.76F
MAUSTON-NEW LI PTCLDY    67  66  98 SE3       29.76F FOG
VIROQUA        MOCLDY    65  65  98 SE3       29.76F
WIS DELLS      MOCLDY    68  65  89 S3        29.78F
$$

...ELSEWHERE IN WISCONSIN...


CITY           SKY/WX    TMP DP  RH WIND       PRES   REMARKS
MILWAUKEE      CLOUDY    70  65  84 S12G21    29.84S
MADISON        MOCLDY    72  66  81 S12       29.78F
GREEN BAY      MOCLDY    66  64  93 S5        29.81
EAU CLAIRE     CLOUDY    63  63 100 CALM      29.74S FOG
BLACK RVR FLS  MOCLDY    63  63 100 CALM      29.75F FOG
MEDFORD        CLOUDY    65  65 100 SE6       29.77F FOG
WAUSAU         LGT RAIN  68  65  90 S8        29.77F
WIS RAPIDS     CLOUDY    67  65  93 SE3       29.78F
MARSHFIELD     CLOUDY    68  65  90 S8        29.77F
RICE LAKE      CLOUDY    59  58  94 CALM      29.78S FOG
$$

...NORTHEAST IOWA...


CITY           SKY/WX    TMP DP  RH WIND       PRES   REMARKS
WATERLOO       LGT RAIN  66  64  93 CALM      29.74F
DUBUQUE        HVY RAIN  69  67  93 SE13G18   29.75F FOG
DECORAH        CLOUDY    66  66 100 SW5       29.74F
MASON CITY     CLOUDY    63  62  97 S5        29.78R
CHARLES CITY   CLOUDY    64  64 100 S5        29.77S
OELWEIN        MOCLDY    68  68 100 SW5       29.76F
$$

...ELSEWHERE IN IOWA...


CITY           SKY/WX    TMP DP  RH WIND       PRES   REMARKS
DES MOINES     LGT RAIN  66  62  87 S3        29.75F
IOWA CITY      LGT RAIN  64  63  96 N6        29.75F
FORT DODGE     CLOUDY    66  61  82 SE8       29.77F
MARSHALLTOWN   LGT RAIN  67  66  97 CALM      29.74F
CEDAR RAPIDS   LGT RAIN  64  64 100 S3        29.75S FOG
$$

...NORTHERN ILLINOIS...


CITY           SKY/WX    TMP DP  RH WIND       PRES   REMARKS
CHICAGO-OHARE  CLOUDY    69  65  86 S10       29.86F
CHICAGO-MIDWAY CLOUDY    71  64  78 S9        29.86F
MOLINE         PTCLDY    71  66  84 S14G23    29.75F
ROCKFORD       CLOUDY    69  66  90 S12       29.84F
PEORIA         CLOUDY    69  66  90 S9        29.81F
$$

NOTE: "FAIR" INDICATES FEW OR NO CLOUDS BELOW 12,000 FEET WITH NO
SIGNIFICANT WEATHER AND/OR OBSTRUCTIONS TO VISIBILITY. WIND
SPEEDS ARE IN MILES-PER-HOUR.




USA.gov is the U.S. government's official web portal to all federal, state and local government web resources and services.